Flag for Austria Weather past 2 weeks in Leoben, Styria, Austria

Now
46 °F

Scattered clouds.


Feels Like: 42 °F
Forecast: 32 / 56 °F
Wind: 8 mph from Southwest

Location: Zeltweg

Current Time: Oct 25, 2014 at 7:56:12 PM

Latest Report: Oct 25, 2014 at 6:50 PM


Visibility: 19 mi

Pressure: 30.21 "Hg

Humidity: 71%

Dew point: 37 °F

Location of LeobenLocation

Historic Weather in Leoben — Graph

°F

Leoben temperature yesterday

Maximum temperature yesterday: 54 °F (at 11:50 AM)
Minimum temperature yesterday: 39 °F (at 7:20 AM)
Average temperature yesterday: 47 °F

Past Weeks' High & Low Weather Summary

 TemperatureHumidityPressure
High73 °F (Oct 11, 2:50 PM)100% (Oct 11, 6:50 AM)30.36 "Hg (Oct 11, 6:50 AM)
Low37 °F (Oct 18, 7:50 AM)40% (Oct 14, 2:20 PM)29.68 "Hg (Oct 21, 10:50 PM)
Average54 °F77%29.95 "Hg
* Reported Oct 10 6:50 PM — Oct 25 6:50 PM, Leoben, Weather by CustomWeather, © 2014

Note: Actual official high and low records may vary slightly from our data, if they occured in-between our weather recording intervals... More about our weather records

Advertising

Leoben weather history for previous 24 hours

 ConditionsComfort  
Time TempWeatherWind HumidityBarometerVisibility
6:50 PM
Oct 25
46 °FScattered clouds.8 mph71%30.21 "Hg19 mi
5:50 PM48 °FScattered clouds.8 mph66%30.18 "Hg25 mi
4:50 PM50 °FPassing clouds.9 mph67%30.18 "Hg25 mi
3:50 PM54 °FPassing clouds.9 mph58%30.15 "Hg25 mi
2:50 PM54 °FPassing clouds.2 mph58%30.15 "Hg25 mi
1:50 PM54 °FPassing clouds.3 mph54%30.18 "Hg25 mi
12:50 PM52 °FPassing clouds.3 mph58%30.18 "Hg25 mi
11:50 AM50 °FScattered clouds.2 mph67%30.21 "Hg25 mi
10:50 AM46 °FPassing clouds.3 mph76%30.21 "Hg25 mi
9:50 AM41 °FScattered clouds.3 mph81%30.21 "Hg19 mi
8:50 AM41 °FPartly sunny.3 mph81%30.18 "Hg19 mi
7:50 AM39 °FPassing clouds.5 mph87%30.18 "Hg16 mi
6:50 AM39 °FPassing clouds.3 mph100%30.15 "Hg9 mi
5:50 AM39 °FPassing clouds.2 mph100%29.86 "Hg9 mi
10:50 PM
Oct 24
41 °FPassing clouds.1 mph87%30.12 "Hg9 mi
9:50 PM43 °FPassing clouds.3 mph87%30.12 "Hg9 mi
8:50 PM43 °FPassing clouds.3 mph87%30.12 "Hg9 mi
7:50 PM39 °FPassing clouds.6 mph87%30.09 "Hg9 mi
Weather by CustomWeather, © 2014

See weather overviewHow to use our weather pages